When you browse on this site, cookies collect data to enhance your experience and personalize the content and advertising you see.
Visit our Privacy Policy to learn more. By continuing to use the site, you agree to this use of cookies and data.
  • En España
  • Lista de países
  • Para 7 días
  • Temperatura del agua
  • Mapa Satelital
  • El tiempo en el mapa
  • Informadores
  • user-avatar
    Iniciar sesión

    Tiempo cada hora Ordino

    Hoy, 22 Marzo, Viernes

    Tiempo Temperatura Precipitaciones Viento Presión Humedad
    00:00 +1°C° 0 mm 1 mps 636 mmHg 56%
    01:00 +1°C° 0 mm 1 mps 636 mmHg 55%
    02:00 +1°C° 0 mm 1 mps 636 mmHg 53%
    03:00 +1°C° 0 mm 1 mps 636 mmHg 52%
    04:00 +1°C° 0 mm 1 mps 636 mmHg 52%
    05:00 +1°C° 0 mm 1 mps 636 mmHg 52%
    06:00 +1°C° 0 mm 1 mps 636 mmHg 53%
    07:00 +4°C° 0 mm 1 mps 637 mmHg 49%
    08:00 +7°C° 0 mm 1 mps 639 mmHg 46%
    09:00 +10°C° 0 mm 1 mps 640 mmHg 42%
    10:00 +11°C° 0 mm 1 mps 640 mmHg 41%
    11:00 +12°C° 0 mm 1 mps 640 mmHg 39%
    12:00 +13°C° 0 mm 1 mps 641 mmHg 38%
    13:00 +12°C° 0.1 mm 1 mps 640 mmHg 42%
    14:00 +12°C° 0.1 mm 1 mps 640 mmHg 45%
    15:00 +11°C° 0.1 mm 1 mps 639 mmHg 48%
    16:00 +10°C° 0.2 mm 1 mps 638 mmHg 54%
    17:00 +7°C° 0.2 mm 0 mps 638 mmHg 60%
    18:00 +6°C° 0.2 mm 0 mps 637 mmHg 66%
    19:00 +5°C° 0 mm 0 mps 637 mmHg 69%
    20:00 +4°C° 0 mm 0 mps 637 mmHg 73%
    21:00 +4°C° 0 mm 1 mps 637 mmHg 76%
    22:00 +4°C° 0 mm 1 mps 637 mmHg 76%
    23:00 +3°C° 0 mm 1 mps 637 mmHg 76%

    Mañana, 23 Marzo, Sábado

    Tiempo Temperatura Precipitaciones Viento Presión Humedad
    00:00 +3°C° 0 mm 1 mps 637 mmHg 76%
    01:00 +3°C° 0 mm 1 mps 637 mmHg 76%
    02:00 +3°C° 0 mm 1 mps 637 mmHg 75%
    03:00 +3°C° 0 mm 1 mps 636 mmHg 75%
    04:00 +3°C° 0 mm 1 mps 636 mmHg 74%
    05:00 +3°C° 0 mm 1 mps 636 mmHg 74%
    06:00 +3°C° 0 mm 1 mps 636 mmHg 73%
    07:00 +5°C° 0 mm 1 mps 638 mmHg 64%
    08:00 +8°C° 0 mm 1 mps 639 mmHg 54%
    09:00 +10°C° 0 mm 0 mps 640 mmHg 45%
    10:00 +12°C° 0 mm 1 mps 640 mmHg 42%
    11:00 +13°C° 0 mm 1 mps 640 mmHg 39%
    12:00 +14°C° 0 mm 1 mps 640 mmHg 36%
    13:00 +14°C° 0 mm 1 mps 640 mmHg 37%
    14:00 +14°C° 0 mm 1 mps 639 mmHg 39%
    15:00 +14°C° 0 mm 1 mps 639 mmHg 40%
    16:00 +12°C° 0 mm 1 mps 638 mmHg 48%
    17:00 +10°C° 0 mm 1 mps 637 mmHg 56%
    18:00 +8°C° 0 mm 1 mps 637 mmHg 65%
    19:00 +7°C° 0 mm 1 mps 637 mmHg 68%
    20:00 +6°C° 0 mm 1 mps 637 mmHg 71%
    21:00 +5°C° 0 mm 1 mps 637 mmHg 75%
    22:00 +5°C° 0 mm 1 mps 636 mmHg 75%
    23:00 +5°C° 0 mm 1 mps 636 mmHg 75%

    Pasado mañana, 24 Marzo, Domingo

    Tiempo Temperatura Precipitaciones Viento Presión Humedad
    00:00 +5°C° 0 mm 1 mps 636 mmHg 75%
    01:00 +4°C° 0 mm 1 mps 636 mmHg 73%
    02:00 +4°C° 0 mm 1 mps 636 mmHg 71%
    03:00 +4°C° 0 mm 1 mps 636 mmHg 68%
    04:00 +4°C° 0 mm 1 mps 636 mmHg 67%
    05:00 +4°C° 0 mm 1 mps 636 mmHg 66%
    06:00 +4°C° 0 mm 1 mps 636 mmHg 65%
    07:00 +6°C° 0 mm 1 mps 637 mmHg 57%
    08:00 +9°C° 0 mm 1 mps 638 mmHg 50%
    09:00 +12°C° 0 mm 1 mps 639 mmHg 42%
    10:00 +13°C° 0 mm 1 mps 639 mmHg 40%
    11:00 +14°C° 0 mm 1 mps 639 mmHg 39%
    12:00 +15°C° 0 mm 1 mps 640 mmHg 38%
    13:00 +14°C° 0 mm 1 mps 639 mmHg 41%
    14:00 +14°C° 0 mm 1 mps 639 mmHg 44%
    15:00 +13°C° 0 mm 1 mps 638 mmHg 47%
    16:00 +12°C° 0.2 mm 1 mps 637 mmHg 55%
    17:00 +10°C° 0.2 mm 1 mps 637 mmHg 64%
    18:00 +8°C° 0.2 mm 1 mps 636 mmHg 73%
    19:00 +7°C° 0 mm 1 mps 636 mmHg 78%
    20:00 +6°C° 0 mm 1 mps 636 mmHg 82%
    21:00 +5°C° 0 mm 1 mps 636 mmHg 87%
    22:00 +5°C° 0 mm 1 mps 636 mmHg 88%
    23:00 +5°C° 0 mm 1 mps 636 mmHg 89%

    25 Marzo, Lunes

    Tiempo Temperatura Precipitaciones Viento Presión Humedad
    00:00 +5°C° 0 mm 1 mps 636 mmHg 90%
    01:00 +5°C° 0 mm 1 mps 635 mmHg 91%
    02:00 +5°C° 0 mm 1 mps 635 mmHg 92%
    03:00 +4°C° 0 mm 1 mps 635 mmHg 92%
    04:00 +4°C° 0 mm 1 mps 635 mmHg 93%
    05:00 +4°C° 0 mm 1 mps 635 mmHg 93%
    06:00 +4°C° 0 mm 1 mps 635 mmHg 93%
    07:00 +6°C° 0 mm 1 mps 636 mmHg 82%
    08:00 +8°C° 0 mm 1 mps 637 mmHg 72%
    09:00 +11°C° 0 mm 1 mps 638 mmHg 61%
    10:00 +11°C° 0.1 mm 1 mps 638 mmHg 59%
    11:00 +12°C° 0.1 mm 1 mps 638 mmHg 57%
    12:00 +12°C° 0.1 mm 1 mps 638 mmHg 55%
    13:00 +12°C° 0.4 mm 1 mps 637 mmHg 60%
    14:00 +11°C° 0.4 mm 1 mps 636 mmHg 65%
    15:00 +10°C° 0.4 mm 1 mps 635 mmHg 69%
    16:00 +9°C° 0.3 mm 1 mps 635 mmHg 74%
    17:00 +8°C° 0.3 mm 1 mps 635 mmHg 79%
    18:00 +6°C° 0.3 mm 2 mps 634 mmHg 84%
    19:00 +7°C° 0 mm 1 mps 635 mmHg 87%
    20:00 +6°C° 0 mm 1 mps 635 mmHg 90%
    21:00 +6°C° 0 mm 1 mps 635 mmHg 93%
    22:00 +5°C° 0 mm 1 mps 635 mmHg 92%
    23:00 +4°C° 0 mm 1 mps 634 mmHg 92%

    26 Marzo, Martes

    Tiempo Temperatura Precipitaciones Viento Presión Humedad
    00:00 +3°C° 0 mm 1 mps 634 mmHg 92%
    01:00 +3°C° 0 mm 1 mps 634 mmHg 90%
    02:00 +3°C° 0 mm 1 mps 634 mmHg 89%
    03:00 +3°C° 0 mm 1 mps 634 mmHg 87%
    04:00 +2°C° 0 mm 1 mps 634 mmHg 86%
    05:00 +1°C° 0 mm 2 mps 634 mmHg 86%
    06:00 +1°C° 0 mm 2 mps 634 mmHg 85%
    07:00 +5°C° 0 mm 1 mps 635 mmHg 69%
    08:00 +8°C° 0 mm 1 mps 636 mmHg 54%
    09:00 +11°C° 0 mm 1 mps 638 mmHg 38%
    10:00 +12°C° 0 mm 1 mps 638 mmHg 35%
    11:00 +14°C° 0 mm 1 mps 639 mmHg 32%
    12:00 +15°C° 0 mm 1 mps 639 mmHg 29%
    13:00 +15°C° 0 mm 1 mps 639 mmHg 32%
    14:00 +15°C° 0 mm 1 mps 639 mmHg 35%
    15:00 +15°C° 0 mm 1 mps 639 mmHg 37%
    16:00 +13°C° 0 mm 1 mps 638 mmHg 47%
    17:00 +10°C° 0 mm 1 mps 638 mmHg 56%
    18:00 +8°C° 0 mm 1 mps 637 mmHg 65%
    19:00 +7°C° 0 mm 1 mps 637 mmHg 73%
    20:00 +5°C° 0 mm 2 mps 638 mmHg 80%
    21:00 +4°C° 0 mm 2 mps 638 mmHg 87%
    22:00 +4°C° 0 mm 2 mps 638 mmHg 87%
    23:00 +3°C° 0 mm 2 mps 638 mmHg 88%

    27 Marzo, Miércoles

    Tiempo Temperatura Precipitaciones Viento Presión Humedad
    00:00 +3°C° 0 mm 2 mps 638 mmHg 88%
    01:00 +3°C° 0 mm 2 mps 637 mmHg 83%
    02:00 +3°C° 0 mm 2 mps 637 mmHg 77%
    03:00 +2°C° 0 mm 2 mps 637 mmHg 72%
    04:00 +2°C° 0 mm 2 mps 637 mmHg 68%
    05:00 +2°C° 0 mm 2 mps 637 mmHg 64%
    06:00 +2°C° 0 mm 2 mps 637 mmHg 59%
    07:00 +4°C° 0 mm 2 mps 639 mmHg 51%
    08:00 +7°C° 0 mm 2 mps 640 mmHg 43%
    09:00 +10°C° 0 mm 2 mps 641 mmHg 35%
    10:00 +12°C° 0 mm 2 mps 641 mmHg 33%
    11:00 +13°C° 0 mm 2 mps 641 mmHg 32%
    12:00 +15°C° 0 mm 2 mps 642 mmHg 31%
    13:00 +14°C° 0 mm 2 mps 641 mmHg 32%
    14:00 +14°C° 0 mm 2 mps 641 mmHg 33%
    15:00 +14°C° 0 mm 2 mps 641 mmHg 34%
    16:00 +12°C° 0 mm 2 mps 640 mmHg 41%
    17:00 +10°C° 0 mm 1 mps 639 mmHg 47%
    18:00 +8°C° 0 mm 1 mps 639 mmHg 54%
    19:00 +7°C° 0 mm 1 mps 639 mmHg 56%
    20:00 +5°C° 0 mm 1 mps 638 mmHg 59%
    21:00 +4°C° 0 mm 1 mps 638 mmHg 61%
    22:00 +4°C° 0 mm 1 mps 638 mmHg 60%
    23:00 +4°C° 0 mm 1 mps 638 mmHg 60%
    Mostrar más